Weather History for Burnet, TX

Change the Weather History Date:

Wednesday, January 9, 2013

  Actual Average Record
Temperature  
Mean Temperature 54 °F -  
Max Temperature 57 °F 57 °F 78 °F (2003)
Min Temperature 50 °F 37 °F 25 °F (1999)
Degree Days  
Heating Degree Days 12    
Growing Degree Days 4 (Base 50)    
Moisture  
Dew Point 52 °F    
Average Humidity 92    
Maximum Humidity 97    
Minimum Humidity 87    
Precipitation  
Precipitation 0.69 in - - ()
Sea Level Pressure  
Sea Level Pressure 29.99 in    
Wind  
Wind Speed 10 mph (North)    
Max Wind Speed 21 mph    
Max Gust Speed 34 mph    
Visibility 4 miles    
Events Fog , Rain    
Averages and records for this station are not official NWS values.
T = Trace of Precipitation, MM = Missing Value Source: NWS Daily Summary

Daily Weather History Graph

Daily Weather History Graph

Search for Another Location

Airport:

Trip Planner

Search our weather history database for the weather conditions in past years. The results will help you decide how hot, cold, wet, or windy it might be!

Date:

Astronomy

Jan. 09, 2013 Rise Set
Actual Time 7:31 AM CST 5:49 PM CST
Civil Twilight 7:05 AM CST 6:15 PM CST
Nautical Twilight 6:35 AM CST 6:45 PM CST
Astronomical Twilight 6:06 AM CST 7:14 PM CST
Moon 5:12 AM CST (1/9) 3:52 PM CST (1/9)
Length of Visible Light 11h 10m
Length of Day
10h 17m
Waning Crescent, 6% of the Moon is Illuminated
Jan 9
Waning Crescent
Jan 11
New
Jan 18
First Quarter
Jan 26
Full
Feb 3
Last Quarter

Hourly Weather History & Observations

Time (CST) Temp. Dew Point Humidity Pressure Visibility Wind Dir Wind Speed Gust Speed Precip Events Conditions
12:04 AM 50.0 °F 48.9 °F 96% 29.99 in 5.0 mi North 8.1 mph - 0.01 in Rain Light Rain
12:39 AM 51.1 °F 48.9 °F 92% 29.97 in 4.0 mi North 13.8 mph 18.4 mph 0.03 in Rain Light Rain
12:50 AM 51.8 °F 48.2 °F 88% 29.97 in 5.0 mi North 11.5 mph 17.3 mph 0.04 in Rain Light Rain
12:53 AM 51.1 °F 48.9 °F 92% 29.96 in 5.0 mi North 13.8 mph 18.4 mph 0.04 in Rain Light Rain
1:25 AM 52.0 °F 50.0 °F 93% 30.00 in 6.0 mi NNE 11.5 mph - 0.01 in Rain Rain
1:53 AM 52.0 °F 50.0 °F 93% 30.03 in 4.0 mi North 9.2 mph 16.1 mph 0.05 in Rain Rain
2:25 AM 52.0 °F 50.0 °F 93% 30.03 in 4.0 mi NNE 9.2 mph - 0.10 in Rain Rain
2:41 AM 53.1 °F 51.1 °F 93% 30.01 in 3.0 mi NNE 11.5 mph 19.6 mph 0.17 in Rain Heavy Rain
2:53 AM 53.1 °F 51.1 °F 93% 30.00 in 3.0 mi NNE 16.1 mph 23.0 mph 0.23 in Rain Heavy Rain
3:53 AM 54.0 °F 52.0 °F 93% 29.97 in 4.0 mi NNE 19.6 mph 34.5 mph 0.15 in Rain Rain
4:53 AM 55.9 °F 53.1 °F 90% 29.97 in 7.0 mi NNE 20.7 mph 31.1 mph 0.01 in Rain Light Rain
5:53 AM 55.0 °F 53.1 °F 93% 29.98 in 8.0 mi NE 17.3 mph 26.5 mph 0.01 in Rain Light Rain
6:00 AM 55.0 °F 53.1 °F 93% 29.99 in 9.0 mi NNE 16.1 mph - 0.00 in Rain Light Rain
6:53 AM 55.9 °F 53.1 °F 90% 29.96 in 4.0 mi NNE 16.1 mph 26.5 mph 0.01 in Rain Light Rain
7:49 AM 55.4 °F 53.6 °F 94% 30.00 in 2.5 mi NNE 17.3 mph 25.3 mph 0.07 in Rain Heavy Rain
7:53 AM 55.9 °F 54.0 °F 93% 29.99 in 2.0 mi NNE 16.1 mph 23.0 mph 0.08 in Rain Heavy Rain
8:23 AM 55.9 °F 54.0 °F 93% 30.01 in 1.8 mi NNE 16.1 mph - 0.05 in Rain Rain
8:41 AM 55.9 °F 54.0 °F 93% 30.01 in 2.0 mi NNE 17.3 mph 24.2 mph 0.07 in Rain Light Rain
8:46 AM 55.9 °F 53.1 °F 90% 30.02 in 1.8 mi NNE 13.8 mph 24.2 mph 0.07 in Rain Light Rain
8:49 AM 55.4 °F 53.6 °F 94% 30.02 in 2.0 mi NNE 15.0 mph 24.2 mph 0.07 in Rain Light Rain
8:53 AM 55.0 °F 53.1 °F 93% 30.01 in 2.5 mi NNE 13.8 mph 24.2 mph 0.07 in Rain Light Rain
9:01 AM 55.0 °F 53.1 °F 93% 30.02 in 7.0 mi NNE 16.1 mph 25.3 mph 0.00 in Rain Light Rain
9:21 AM 55.0 °F 52.0 °F 89% 30.03 in 4.0 mi NNE 13.8 mph 25.3 mph 0.00 in Rain Light Rain
9:42 AM 54.0 °F 52.0 °F 93% 30.02 in 2.0 mi NNE 12.7 mph 21.9 mph 0.00 in Rain Light Rain
9:53 AM 54.0 °F 51.1 °F 90% 30.01 in 2.5 mi NNE 12.7 mph 23.0 mph 0.00 in Rain Light Rain
9:56 AM 54.0 °F 51.1 °F 90% 30.03 in 3.0 mi North 10.4 mph 23.0 mph 0.00 in Rain Light Rain
10:10 AM 53.1 °F 51.1 °F 93% 30.02 in 10.0 mi North 15.0 mph 23.0 mph 0.00 in   Overcast
10:51 AM 53.6 °F 51.8 °F 94% 30.01 in 2.5 mi North 11.5 mph 18.4 mph 0.00 in Rain Light Rain
10:53 AM 53.1 °F 51.1 °F 93% 30.00 in 2.5 mi North 11.5 mph 18.4 mph 0.00 in Rain Light Rain
11:21 AM 53.1 °F 51.1 °F 93% 30.01 in 1.2 mi NNW 6.9 mph - 0.00 in Rain Light Rain
11:35 AM 53.1 °F 51.1 °F 93% 30.03 in 1.8 mi NW 5.8 mph - 0.00 in Rain Light Rain
11:53 AM 53.1 °F 51.1 °F 93% 30.02 in 1.5 mi West 5.8 mph - 0.01 in Rain Light Rain
11:59 AM 53.1 °F 51.1 °F 93% 30.04 in 1.2 mi West 5.8 mph - 0.00 in Rain Rain
12:09 PM 53.1 °F 51.1 °F 93% 30.01 in 1.0 mi WNW 10.4 mph - 0.02 in Rain Rain
12:13 PM 53.1 °F 51.1 °F 93% 30.01 in 1.5 mi WNW 9.2 mph - 0.02 in Rain Light Rain
12:17 PM 53.1 °F 51.1 °F 93% 30.00 in 2.0 mi WNW 9.2 mph - 0.03 in Rain Light Rain
12:53 PM 53.1 °F 51.1 °F 93% 29.97 in 6.0 mi NW 6.9 mph - 0.03 in Rain Light Rain
1:53 PM 53.1 °F 51.1 °F 93% 29.87 in 10.0 mi North 12.7 mph 23.0 mph 0.00 in   Scattered Clouds
2:36 PM 55.0 °F 52.0 °F 89% 29.88 in 10.0 mi NNE 9.2 mph - N/A   Scattered Clouds
2:51 PM 55.4 °F 51.8 °F 88% 29.89 in 10.0 mi NNE 10.4 mph - N/A   Mostly Cloudy
2:53 PM 55.9 °F 52.0 °F 87% 29.88 in 10.0 mi NE 9.2 mph - N/A   Mostly Cloudy
3:53 PM 57.0 °F 53.1 °F 87% 29.91 in 10.0 mi Calm Calm - N/A   Overcast
4:53 PM 55.9 °F 53.1 °F 90% 29.95 in 10.0 mi SSW 10.4 mph - N/A   Overcast
5:53 PM 55.0 °F 53.1 °F 93% 29.96 in 10.0 mi Calm Calm - N/A   Overcast
6:10 PM 55.0 °F 53.1 °F 93% 29.99 in 10.0 mi Calm Calm - N/A   Overcast
6:48 PM 55.4 °F 53.6 °F 94% 30.01 in 6.0 mi SW 4.6 mph - N/A   Overcast
6:53 PM 55.0 °F 53.1 °F 93% 29.99 in 6.0 mi SW 3.5 mph - N/A   Overcast
7:03 PM 55.0 °F 53.1 °F 93% 30.00 in 7.0 mi West 4.6 mph - N/A   Overcast
7:53 PM 55.0 °F 53.1 °F 93% 29.98 in 10.0 mi Calm Calm - N/A   Overcast
8:53 PM 55.0 °F 53.1 °F 93% 29.98 in 10.0 mi Calm Calm - N/A   Mostly Cloudy
9:41 PM 52.0 °F 51.1 °F 97% 30.01 in 2.5 mi Calm Calm - N/A   Mostly Cloudy
9:43 PM 52.0 °F 51.1 °F 97% 30.01 in 1.2 mi Calm Calm - N/A   Mostly Cloudy
9:51 PM 51.8 °F 50.0 °F 94% 30.01 in 0.5 mi Calm Calm - N/A Fog Fog
9:53 PM 52.0 °F 50.0 °F 93% 29.99 in 0.2 mi Calm Calm - N/A Fog Fog
10:07 PM 52.0 °F 50.0 °F 93% 30.02 in 0.5 mi Calm Calm - N/A Fog Fog
10:27 PM - - N/A% 30.03 in 1.5 mi South 4.6 mph - N/A   Overcast
10:37 PM - - N/A% 30.03 in 0.8 mi South 3.5 mph - N/A   Overcast
10:49 PM - - N/A% 30.02 in 0.2 mi Calm Calm - N/A Fog Fog
10:53 PM - - N/A% 30.02 in 0.2 mi Calm Calm - N/A Fog Fog
11:53 PM - - N/A% 30.02 in 0.2 mi Calm Calm - N/A Fog Fog